Regional Weather Roundup
Issued by NWS

Home | Current Version | Previous Version | Text Only | Print | Product List | Glossary On
Versions: 1 2 3 4 5 6 7 8 9 10 11 12 13 14 15 16 17 18 19 20 21 22 23 24 25 26 27 28 29 30 31 32 33 34 35 36 37 38 39 40 41 42 43 44 45 46 47 48 49 50
000
ASUS43 KFSD 191710
RWRSD

WEATHER ROUNDUP FOR SOUTH DAKOTA
NATIONAL WEATHER SERVICE SIOUX FALLS SD
1200 PM CDT FRI SEP 19 2014

NOTE: "FAIR" INDICATES FEW OR NO CLOUDS BELOW 12,000 FEET WITH NO
SIGNIFICANT WEATHER AND/OR OBSTRUCTIONS TO VISIBILITY.


SDZ001>005-009-010-012>017-191800-
NORTHWEST AND NORTH CENTRAL SOUTH DAKOTA

CITY           SKY/WX    TMP DP  RH WIND       PRES   REMARKS
BUFFALO          N/A     74  51  44 W21       29.75S
FAITH            N/A     73  57  57 NW18      29.77R
MOBRIDGE       MOSUNNY   77  66  68 W3        29.65S
$$

SDZ012>016-024>037-041>051-057-063-072>074-191800-
SOUTHWEST AND SOUTH CENTRAL SOUTH DAKOTA

CITY           SKY/WX    TMP DP  RH WIND       PRES   REMARKS
RAPID CTY ARPT CLOUDY    81  51  35 NW10      29.84R
PIERRE         MOSUNNY   78  63  59 W8        29.71S
CUSTER         PTSUNNY   73  47  39 VRB7      29.97F
ELLSWORTH AFB  CLOUDY    80  50  35 NW20      29.83S
PHILIP         CLOUDY    80  55  42 W15       29.77S
PINE RIDGE     PTSUNNY   74  58  57 W7        29.87R
WINNER         FAIR      82  61  48 W12       29.74S
$$

SDZ004>011-016>023-039-040-191800-
NORTHEAST SOUTH DAKOTA

CITY           SKY/WX    TMP DP  RH WIND       PRES   REMARKS
ABERDEEN       CLOUDY    69  64  84 SW10G18   29.66S
WATERTOWN      CLOUDY    69  64  84 S13       29.67F
SISSETON         N/A     67  64  90 SW10      29.64F
$$

SDZ017-020-022-023-036>040-048>070-191800-
SOUTHEAST SOUTH DAKOTA

CITY           SKY/WX    TMP DP  RH WIND       PRES   REMARKS
SIOUX FALLS    MOSUNNY   78  64  61 S23G32    29.70F
HURON          PTSUNNY   77  63  61 SW9       29.67F
CHAMBERLAIN    PTSUNNY   76  65  67 W7        29.71R
MITCHELL       MOSUNNY   79  65  62 SW12      29.69S
YANKTON        SUNNY     79  64  61 SW20G26   29.72F
$$

ABBREVIATIONS USED IN REMARKS
   TC - TEMPERATURE IN CELSIUS
  WCI - WIND CHILL INDEX
   HX - HEAT INDEX
  VSB - VISIBILITY




USA.gov is the U.S. government's official web portal to all federal, state and local government web resources and services.